Theta_e
307 307 307 307 307 307 307 307 306 306 305 305 306 306 306 305 304 304 304 304 305 305 305 304 304 303 303 302 302 302 301 300 299 298 296 295 294 293 293 293 293 293 294 294 294 294 294 294 294 294 294 294 294 293 292 291 291 290 290 290 289 289 289 289 289 290 290 290 290 290 290 290 290 290 290 290 290 289 289 288 288 288 289 289 289
304 305 305 305 305 306 306 306 306 305 305 305 305 305 305 305 305 304 304 304 304 304 304 304 304 303 303 302 302 302 301 301 300 298 297 296 294 293 293 293 293 293 293 293 294 294 294 294 294 294 294 294 294 293 292 291 291 290 290 289 289 288 288 288 288 289 289 290 289 289 289 289 289 289 289 289 288 288 288 288 288 288 288 288 288
303 303 304 304 304 304 304 304 304 305 305 305 305 306 306 305 305 305 304 304 303 303 304 304 304 303 302 302 302 301 301 301 300 299 298 297 296 294 293 293 293 293 293 293 293 293 294 294 294 294 294 294 293 293 292 291 290 290 289 289 288 288 288 288 288 288 288 289 289 288 288 287 287 287 287 287 287 287 287 287 287 287 287 288 288
304 304 304 304 304 304 304 304 303 304 305 305 306 306 306 306 305 305 304 304 304 303 303 303 303 303 302 302 301 301 301 301 300 299 298 297 296 295 294 293 293 293 293 293 293 293 294 294 294 294 294 294 293 293 292 291 290 289 289 288 288 288 287 287 287 287 287 288 288 287 287 286 285 285 286 286 286 286 286 286 286 286 287 287 287
304 305 304 304 304 304 304 304 303 304 304 305 306 306 306 305 305 305 304 304 304 304 304 303 303 303 303 303 302 301 301 301 300 300 299 298 297 296 295 294 293 293 293 292 293 293 293 293 293 294 294 293 293 293 292 291 290 289 289 288 288 287 287 287 287 287 287 287 287 286 286 285 285 285 285 285 285 285 285 285 285 286 286 286 286
303 304 304 305 305 304 303 303 303 304 304 304 305 305 305 304 304 304 304 303 303 303 303 303 304 304 304 303 303 301 300 300 300 300 299 298 297 296 295 294 293 293 292 292 292 293 293 293 293 293 293 293 293 293 292 291 289 289 288 288 288 287 287 287 287 287 286 286 286 285 285 286 286 285 285 284 284 285 285 285 286 286 286 286 286
301 302 303 304 305 304 303 302 302 303 303 303 303 304 304 303 303 303 303 302 303 303 303 303 304 304 304 304 303 301 300 299 299 299 298 298 297 297 296 295 294 293 292 292 292 292 292 293 293 293 293 293 292 292 291 290 289 288 288 288 287 287 287 287 287 286 286 286 285 285 285 286 286 285 285 284 284 284 284 285 285 285 285 285 285
299 300 301 302 303 303 302 301 301 301 302 302 302 302 302 302 302 302 301 301 302 302 303 302 302 303 304 304 303 302 300 299 298 298 298 298 298 297 297 296 295 293 292 292 292 292 292 292 292 292 292 292 292 291 291 289 289 288 288 288 287 287 287 287 287 287 286 285 285 285 286 286 286 286 285 285 284 284 284 284 284 285 285 285 285
296 298 299 300 300 301 301 300 300 300 300 301 301 301 301 302 301 300 300 300 300 301 302 301 300 300 301 302 302 302 301 300 300 299 298 298 298 297 297 296 295 294 293 292 292 291 291 292 292 292 292 292 291 290 289 289 288 288 288 287 287 287 287 287 287 287 286 285 285 286 286 286 286 286 286 285 284 284 284 284 284 284 285 285 284
295 296 297 298 298 299 299 298 298 298 298 299 300 300 300 300 300 299 299 299 299 299 299 299 299 299 299 299 300 301 301 301 300 299 298 297 297 297 296 296 295 294 293 292 291 291 291 291 291 291 291 291 290 289 288 288 288 288 287 287 287 287 287 287 287 286 286 286 287 287 286 286 286 286 285 285 284 284 284 284 284 284 284 284 284
294 294 295 296 297 298 298 297 297 296 297 297 298 298 299 299 299 299 298 298 298 298 297 298 298 298 297 297 298 299 301 301 300 298 297 296 296 296 296 295 295 294 293 292 291 291 291 291 291 291 291 290 290 289 288 288 288 287 287 286 287 287 287 287 287 287 287 287 287 287 286 286 286 285 285 284 284 284 283 283 283 283 283 282 282
293 294 294 295 296 297 298 298 297 296 295 295 296 296 297 297 297 297 297 297 297 297 297 297 297 297 296 296 297 297 298 299 298 298 297 296 295 295 295 295 294 294 293 292 291 291 290 290 290 290 290 290 289 288 288 288 287 287 286 286 286 287 287 287 287 287 288 288 287 287 286 286 285 285 284 284 283 283 283 283 283 282 281 280 280
292 293 293 294 295 295 296 297 297 297 295 294 294 295 295 295 296 296 296 296 296 296 296 295 295 295 295 295 296 296 296 296 296 296 295 295 295 294 294 294 294 293 293 292 291 290 290 290 290 290 290 289 289 288 288 287 287 286 286 286 286 286 287 287 287 287 288 287 286 286 285 285 284 284 283 283 283 282 282 282 281 281 280 279 279
292 292 292 293 294 294 295 296 297 297 296 294 294 294 294 294 295 295 295 295 295 295 295 295 294 295 295 295 295 295 295 295 295 295 294 294 294 294 293 293 293 293 292 292 291 290 289 289 290 290 290 289 288 288 287 287 286 286 286 286 286 286 286 287 287 287 287 286 285 285 285 284 284 283 283 282 281 281 281 280 280 280 279 279 279
291 291 292 292 293 293 294 294 295 296 296 295 294 293 293 293 294 294 294 294 294 295 294 294 294 294 294 294 294 294 294 294 294 294 294 293 293 293 293 292 292 292 292 291 290 290 289 289 289 289 289 289 288 288 287 287 286 286 285 286 286 286 286 287 287 286 285 284 284 284 284 284 283 283 282 281 280 280 280 280 279 279 278 279 280
290 291 291 292 292 292 293 293 294 295 296 296 295 294 293 293 293 293 293 294 294 293 293 293 293 294 294 294 294 294 294 293 293 293 293 293 293 292 292 292 291 291 291 290 289 289 288 288 288 288 288 288 287 287 286 286 286 285 285 286 286 286 286 286 286 285 284 284 284 284 284 283 282 281 280 279 279 279 280 280 280 279 279 279 280
289 290 290 291 291 292 292 293 293 294 295 295 295 294 293 292 292 292 292 293 293 293 293 293 293 293 293 293 294 293 293 293 292 292 292 292 292 291 291 291 291 290 290 290 289 288 287 287 288 288 287 287 287 286 286 285 285 285 285 285 285 286 286 286 285 285 284 284 284 284 283 282 281 280 280 279 279 279 279 280 280 279 279 279 280
288 288 288 289 290 291 291 291 292 293 294 295 295 295 294 292 292 291 291 292 292 292 292 292 292 292 293 293 293 293 293 293 292 292 292 291 291 291 291 291 290 290 289 289 288 287 287 287 287 287 287 287 286 286 285 285 285 285 285 285 285 286 286 285 285 284 284 284 283 283 282 281 281 280 279 279 279 279 279 280 279 279 278 278 279
286 286 287 288 289 290 291 291 291 292 293 294 294 294 294 293 292 291 291 291 291 291 291 291 291 291 292 292 292 292 292 292 291 291 291 291 290 290 290 290 290 290 289 288 288 286 286 286 286 286 286 286 285 285 285 285 285 285 285 285 285 286 286 285 285 284 284 283 283 282 281 281 280 279 279 279 279 279 279 279 279 278 278 278 278
285 285 285 286 287 288 290 290 290 291 292 293 294 294 294 294 293 292 291 290 290 290 290 290 290 291 291 291 291 291 291 291 290 290 290 290 290 290 290 290 290 289 289 288 287 286 286 286 286 285 285 285 285 284 284 284 285 284 284 285 285 286 285 284 284 284 283 283 282 281 281 280 280 280 280 280 279 279 279 278 278 278 277 277 277
284 285 285 285 286 286 288 289 290 290 291 292 293 294 294 294 294 292 291 290 290 290 290 290 290 290 290 290 290 290 290 290 290 289 289 289 289 289 289 289 289 289 289 288 287 287 286 286 285 285 285 285 285 284 284 284 284 284 284 285 285 284 284 283 284 283 283 282 281 281 281 280 280 280 280 280 279 279 278 278 277 277 277 277 277
284 284 284 285 285 285 286 287 289 290 290 290 291 293 294 294 294 293 291 290 289 289 289 289 289 289 289 289 289 289 289 289 289 288 288 288 288 288 289 289 289 289 289 288 287 287 286 286 286 286 286 285 284 284 284 284 283 283 284 284 284 283 283 283 283 283 282 282 281 281 280 280 280 280 280 279 279 278 278 277 277 277 276 276 276
284 284 284 284 284 285 285 286 287 288 289 289 290 291 293 294 294 294 292 291 290 289 288 288 288 288 288 288 289 288 288 288 288 288 287 287 287 287 288 288 288 289 288 288 287 287 287 286 286 286 286 285 284 283 283 282 282 283 284 283 282 282 283 284 283 282 281 281 280 280 280 279 279 279 279 279 278 277 277 277 277 276 276 276 276
284 284 284 284 284 284 285 285 286 286 288 288 289 290 291 293 294 294 293 291 290 289 288 288 288 288 288 288 288 288 288 288 288 287 287 286 286 286 286 287 287 287 287 286 286 286 286 285 285 285 285 284 283 283 282 281 281 282 282 281 282 283 283 283 282 281 281 280 280 280 279 279 279 279 278 278 277 277 276 276 276 276 276 276 275
284 284 284 284 284 284 284 284 285 285 286 287 288 289 290 292 294 295 294 292 291 289 289 288 287 287 287 288 288 288 288 288 288 288 287 286 286 286 285 286 285 286 286 285 285 285 285 285 285 285 283 282 282 281 281 281 281 280 280 281 282 282 282 281 281 281 280 280 280 279 279 279 278 278 278 277 277 276 276 276 276 276 276 276 275
283 283 284 284 284 284 284 284 285 285 286 286 287 288 289 290 292 294 294 294 292 290 289 288 288 287 287 287 288 288 288 288 288 287 287 286 286 285 285 285 285 285 285 284 284 284 283 284 285 284 281 280 280 280 280 280 280 280 281 282 282 281 281 280 280 280 280 279 279 279 278 278 278 277 277 276 276 276 276 275 276 276 276 275 276
282 283 283 283 284 284 284 284 284 285 285 286 286 287 288 289 290 292 294 294 294 292 291 289 288 288 288 288 288 288 287 287 286 286 286 286 285 285 285 284 284 284 284 284 283 282 282 283 283 281 279 279 279 280 280 280 280 281 282 281 280 280 280 280 279 279 279 279 279 278 278 277 277 277 276 276 276 275 275 275 275 275 275 275 275
281 282 283 283 283 283 283 284 284 284 285 285 285 286 287 288 289 291 292 293 293 293 292 291 290 289 289 288 288 288 287 287 287 287 287 286 285 284 284 284 283 283 284 284 283 282 281 281 280 279 278 278 279 279 279 280 280 281 281 280 279 279 279 279 279 279 278 278 278 278 277 277 277 276 276 275 275 275 275 275 275 275 275 275 275
280 281 282 282 282 282 282 282 283 283 283 284 284 285 286 287 287 289 291 291 291 291 291 291 290 290 289 288 288 288 288 289 289 289 288 287 285 284 284 284 283 283 283 283 283 282 281 280 279 278 278 278 279 279 279 280 280 280 279 279 279 279 278 278 278 278 278 278 278 277 277 277 276 276 275 275 275 275 275 275 275 275 274 274 274
277 280 281 281 281 281 280 280 281 281 281 281 282 283 285 286 286 287 288 290 290 289 289 290 289 289 288 288 288 288 288 288 288 288 287 286 284 283 283 284 284 283 282 282 283 282 281 280 279 278 278 279 279 280 280 280 280 279 279 279 279 278 278 278 277 277 277 277 277 277 276 276 276 275 275 275 275 275 274 274 274 274 274 274 274
274 277 278 278 278 278 278 279 279 279 280 280 280 281 283 284 285 286 286 287 288 288 288 289 288 288 287 287 287 287 287 287 286 286 286 285 284 283 283 283 284 283 282 282 282 282 281 280 279 279 280 280 281 281 280 280 280 279 279 278 278 278 277 277 277 277 277 276 276 276 276 275 275 275 275 274 274 274 274 274 274 273 274 274 274
270 273 275 275 275 275 276 276 276 277 278 278 278 278 279 281 283 284 284 285 286 287 288 288 287 287 286 286 286 286 286 286 286 286 286 285 284 283 282 283 283 282 281 281 282 281 281 280 280 280 280 280 280 280 280 280 279 279 279 278 277 277 276 276 276 276 276 276 276 276 275 275 275 275 274 274 274 274 274 273 273 273 274 274 273
268 270 271 271 272 272 272 273 273 274 275 275 276 277 278 279 280 282 282 283 284 285 286 286 285 285 285 285 285 285 285 285 285 285 285 285 284 283 282 282 282 282 281 281 281 281 281 280 280 280 280 280 280 280 280 279 279 278 278 277 276 276 276 276 276 276 276 276 276 275 275 275 274 274 274 274 273 273 273 272 272 273 273 273 273
267 268 268 269 269 269 269 270 271 271 272 273 274 275 277 278 279 280 280 281 282 283 283 284 284 283 283 283 283 283 284 284 283 283 284 284 283 283 282 282 282 281 281 280 280 281 281 280 280 280 280 280 280 280 280 279 278 278 277 276 276 275 275 275 275 275 275 275 275 275 274 274 274 274 273 273 273 273 273 272 272 273 273 272 272
264 265 266 266 267 267 268 268 268 269 270 272 274 275 276 278 279 279 280 281 281 282 282 283 283 283 283 282 282 282 282 282 282 282 282 283 283 282 282 282 281 280 280 280 280 281 281 281 281 280 280 280 280 280 279 278 278 277 276 275 275 275 275 275 275 275 275 275 275 274 274 274 274 273 273 273 272 272 272 272 272 272 271 271 270
263 263 264 265 265 266 266 267 268 270 272 273 275 276 277 278 279 279 280 281 281 281 282 282 283 283 282 282 281 281 280 280 280 281 281 282 282 282 282 281 281 280 279 279 279 280 281 281 281 281 280 280 279 279 278 277 276 276 275 275 275 275 275 275 275 275 275 275 274 274 274 274 273 273 272 272 272 272 272 272 272 271 270 269 269
263 263 263 263 264 265 266 267 269 270 272 273 275 276 277 278 279 280 280 280 280 281 281 281 281 281 281 281 280 280 280 280 279 280 280 280 281 282 282 281 280 280 279 278 279 280 280 281 281 280 280 279 278 278 277 276 276 275 275 275 275 275 275 275 275 275 275 274 274 274 274 273 273 272 272 272 272 272 271 272 272 271 269 268 268
262 263 263 264 264 265 266 266 267 268 270 271 273 274 276 277 279 279 280 280 280 280 280 280 280 280 281 281 281 280 279 279 279 279 280 280 280 281 281 281 280 280 279 279 278 279 279 280 280 279 279 278 278 277 276 276 275 275 275 275 275 275 275 275 275 275 274 274 274 274 274 273 273 272 272 272 271 271 271 271 271 270 269 268 268
262 262 263 264 264 265 265 265 266 268 269 271 272 274 275 276 277 278 279 280 280 280 279 279 279 280 280 281 280 280 279 279 279 279 279 280 280 281 281 280 280 279 279 278 278 279 279 279 279 278 278 277 277 276 276 276 275 275 275 275 275 275 275 274 274 274 274 274 274 274 273 273 272 272 272 271 271 271 271 270 269 269 268 268 268
262 262 263 263 264 264 265 266 267 268 269 271 272 274 276 277 277 278 279 279 279 279 279 279 279 279 280 280 280 280 279 279 279 279 279 279 280 280 280 280 279 279 279 279 278 279 279 279 278 278 277 277 276 276 275 275 274 274 274 274 274 274 274 274 274 274 274 274 274 273 273 272 272 272 271 271 270 270 270 269 268 268 268 268 268
262 262 263 263 264 265 265 266 267 268 269 270 271 273 275 276 277 278 278 279 279 279 279 278 279 279 279 280 280 280 280 279 279 279 279 279 280 280 280 280 279 279 279 279 279 279 279 278 278 277 277 276 276 275 275 275 274 274 274 274 274 274 274 274 274 274 274 274 273 273 272 272 272 272 271 271 270 270 269 268 268 268 267 268 268
263 263 264 264 265 265 265 266 268 268 269 270 271 272 273 275 276 278 278 278 278 278 278 278 278 278 278 279 279 279 279 279 279 279 279 279 279 280 280 280 279 279 279 279 279 278 278 277 277 277 276 276 276 275 275 274 274 274 274 274 274 274 274 274 274 274 274 273 273 272 272 272 272 271 271 270 269 269 268 268 268 267 267 268 268
264 264 265 265 266 266 267 267 268 268 269 271 272 272 273 274 276 277 278 278 278 278 277 277 277 278 278 278 278 279 279 279 278 279 279 279 279 280 279 279 279 279 279 278 278 278 277 277 276 276 276 275 275 274 274 274 274 274 274 274 274 274 274 274 274 274 273 273 273 272 272 272 271 271 270 269 269 268 268 268 267 267 267 268 268
265 265 266 266 267 267 267 268 268 269 270 271 272 273 274 275 276 277 277 277 277 277 277 277 277 277 277 278 278 278 278 278 278 278 279 279 279 279 279 279 279 278 278 277 277 276 276 276 276 275 275 274 274 274 273 274 274 274 274 274 274 274 274 274 274 273 273 273 272 272 272 272 271 270 269 269 268 268 267 267 267 267 268 268 268
266 266 267 267 267 268 268 268 269 270 271 272 272 274 275 275 276 276 277 277 276 276 276 276 277 277 277 277 278 278 278 278 278 278 278 279 279 279 279 279 278 278 277 276 276 275 275 275 275 274 274 274 273 273 273 273 273 273 274 274 273 273 273 273 273 273 273 273 272 272 272 271 271 270 269 268 268 267 267 267 267 267 268 268 267
267 267 268 268 269 269 269 270 271 271 272 273 273 274 275 275 276 276 276 276 276 276 276 276 276 276 277 277 278 278 278 278 278 278 278 278 278 278 278 278 277 277 276 276 275 275 274 274 274 273 273 273 273 273 273 273 273 273 273 273 273 273 273 273 273 273 273 272 272 272 271 271 270 269 268 268 267 267 267 267 267 267 267 267 267
268 268 269 269 270 270 271 271 272 272 273 273 274 274 275 275 275 275 275 275 275 275 275 276 276 276 277 277 277 278 278 278 278 278 278 278 278 278 277 277 276 276 276 275 274 274 274 273 273 273 273 273 273 273 273 273 273 273 273 273 273 273 273 273 273 273 272 272 272 271 271 270 269 268 268 268 267 267 267 267 267 267 267 267 267
268 269 269 270 270 271 271 272 272 273 273 273 274 274 274 274 274 274 274 275 275 275 275 275 276 276 276 277 277 278 278 278 278 278 277 277 277 277 277 277 276 276 275 274 273 273 273 273 273 272 272 272 272 272 272 272 272 272 272 272 272 272 272 272 272 272 272 271 271 270 270 269 268 268 268 267 267 267 267 267 267 267 267 267 267
268 269 269 270 270 271 271 272 272 272 273 273 273 274 274 274 274 274 274 274 274 275 275 275 275 276 276 277 277 277 278 278 277 277 277 276 276 276 276 276 276 275 274 273 273 273 272 272 272 272 272 272 272 272 272 272 272 272 272 272 272 272 272 272 272 272 272 271 271 270 269 268 268 268 267 267 267 267 267 267 267 267 267 267 267
268 269 269 270 270 271 271 271 272 272 272 273 273 273 273 273 273 273 274 274 274 274 275 275 275 276 276 276 276 277 277 277 276 276 276 276 276 276 276 275 274 274 273 273 272 272 272 272 272 272 271 271 271 271 271 271 271 271 271 271 271 272 272 272 272 272 271 270 270 269 269 268 267 267 267 267 267 267 267 267 267 267 267 267 267
268 268 269 269 270 270 271 271 271 272 272 272 272 272 273 273 273 273 273 274 274 274 274 275 275 275 275 276 276 276 276 276 276 276 276 276 276 275 275 274 273 273 273 272 272 272 272 271 271 271 271 271 271 271 271 271 271 271 271 271 271 271 271 271 271 271 270 270 269 269 268 267 267 267 267 267 267 267 267 267 267 267 267 267 267
Wind_Speed
35 35 35 35 36 35 34 34 36 38 39 40 41 42 44 46 47 47 46 45 45 44 44 43 42 42 41 40 40 40 41 42 43 45 47 48 48 48 48 47 46 45 43 41 39 38 36 33 31 29 28 27 25 24 23 22 22 21 21 21 20 20 18 17 17 16 15 16 18 18 20 21 20 20 23 25 26 26 26 27 29 30 30 31 32
32 35 37 39 40 39 38 38 38 39 40 42 43 44 45 46 47 48 49 49 48 47 45 44 44 43 43 42 41 41 41 41 42 44 46 47 48 49 49 48 48 47 45 44 42 40 37 35 33 31 30 28 27 25 24 23 23 23 23 22 21 21 20 19 19 18 15 15 18 19 20 21 21 21 23 25 27 27 26 26 28 29 29 29 30
27 30 34 38 40 41 42 42 41 41 42 43 44 44 46 47 48 49 51 51 51 49 48 46 45 45 45 45 43 42 41 41 41 43 44 46 48 49 50 49 49 48 47 45 43 41 40 37 35 33 31 30 28 26 25 25 25 24 24 23 22 22 21 20 19 19 17 15 16 19 21 23 23 23 23 25 27 27 27 27 27 28 28 29 29
26 27 29 33 35 38 40 41 42 44 44 44 45 45 46 48 49 50 52 53 52 51 50 49 48 48 47 47 46 44 43 42 42 43 44 45 47 48 49 50 50 49 48 47 45 44 42 40 38 35 33 31 29 28 27 26 26 25 24 24 24 22 21 21 19 19 18 16 16 18 21 23 24 25 25 26 27 28 29 29 30 31 31 32 32
27 27 28 30 31 34 37 40 42 44 44 45 46 47 49 50 51 52 54 55 54 53 52 52 51 50 49 48 48 47 45 43 43 44 44 45 46 47 48 50 50 50 49 48 47 46 44 42 40 37 36 34 31 30 29 28 27 26 26 25 24 23 22 21 20 19 19 18 17 17 19 22 25 26 26 27 28 29 30 32 33 34 35 35 36
31 30 29 30 31 33 35 39 42 44 44 45 46 47 50 52 53 55 55 55 56 55 55 54 53 52 51 50 49 49 47 45 44 44 44 44 46 47 48 49 50 50 50 50 49 48 46 44 41 39 37 35 33 31 30 28 27 26 26 26 25 24 23 21 20 20 19 19 18 18 19 21 24 26 26 27 29 31 33 34 35 35 36 37 37
37 34 32 32 32 33 34 36 39 41 43 45 46 47 50 51 53 55 56 56 56 57 57 57 56 54 53 52 51 50 48 47 46 44 44 44 45 46 47 48 50 51 51 51 50 49 48 46 43 41 39 37 35 33 30 28 27 27 27 27 26 25 24 22 20 19 19 19 19 20 20 20 23 26 27 29 30 32 34 37 37 36 36 37 37
41 40 37 35 34 34 33 33 35 38 40 42 45 48 49 50 52 53 55 57 57 57 58 59 58 57 55 54 53 51 50 49 48 47 46 45 46 46 47 48 50 52 52 52 52 51 50 47 45 42 40 38 36 33 31 29 28 28 28 28 28 26 23 21 20 19 19 19 19 20 21 22 24 26 28 30 31 32 33 35 38 38 38 38 38
43 42 40 39 37 34 31 31 33 36 38 40 43 46 47 48 50 52 53 56 57 56 57 58 59 59 58 56 54 53 52 52 51 50 48 48 48 48 48 49 50 52 53 53 53 53 51 49 47 44 41 39 36 34 32 30 30 29 29 29 28 26 23 21 20 19 19 19 20 20 21 23 24 27 28 29 30 32 32 34 37 38 39 40 40
43 42 42 41 40 37 33 31 31 33 37 40 42 43 45 46 48 51 52 53 55 56 56 57 59 59 59 57 56 55 54 54 54 52 50 49 49 49 49 50 51 52 54 54 55 54 53 50 48 45 42 40 38 35 33 32 31 30 29 28 27 25 23 22 20 19 19 20 20 20 21 23 24 26 27 28 29 30 32 33 36 38 40 42 42
44 44 43 42 42 41 38 34 31 32 35 39 41 41 42 44 46 48 50 52 53 54 55 56 58 59 59 58 57 56 56 56 55 53 51 50 48 48 49 50 51 53 54 56 56 55 54 51 48 46 44 42 39 37 35 33 31 30 29 29 27 25 23 21 20 20 20 21 20 20 21 23 24 24 26 27 27 29 30 32 35 37 39 41 44
44 45 45 44 43 43 42 40 35 33 33 35 38 39 40 42 45 46 48 50 51 52 54 55 56 57 57 57 57 57 56 55 54 53 52 50 48 48 49 50 51 53 54 56 56 55 54 52 50 48 46 43 40 38 36 34 32 30 30 29 27 25 22 21 20 21 22 21 20 19 20 22 23 23 24 25 26 27 29 31 33 35 37 39 42
43 45 45 45 44 43 43 43 41 37 33 32 34 37 39 41 43 44 46 47 49 51 53 53 54 55 56 57 57 57 56 54 53 52 51 49 49 49 49 50 51 52 53 55 55 55 55 53 51 49 47 43 40 38 36 34 32 31 30 29 27 24 22 21 21 22 21 20 19 17 18 21 22 22 22 23 25 27 29 31 32 33 36 38 41
42 43 44 44 45 44 44 44 44 41 37 33 32 34 37 39 41 41 43 45 47 50 51 52 53 54 55 56 56 55 55 54 53 52 50 49 49 48 49 50 50 51 52 53 54 55 54 53 51 49 46 43 41 39 37 35 33 32 31 29 26 23 22 21 21 20 19 18 18 17 16 18 20 21 20 21 23 25 27 30 31 33 36 38 39
43 42 43 43 44 44 44 44 45 44 41 37 33 33 34 36 38 39 40 43 46 48 49 51 52 52 52 53 53 54 54 53 53 51 50 49 48 48 49 50 51 52 52 52 52 53 53 52 51 48 45 43 40 38 37 35 34 32 30 28 25 23 21 21 20 18 17 17 17 16 16 17 18 18 18 19 21 23 25 27 29 31 35 37 38
44 43 43 43 43 44 44 45 46 45 44 41 37 34 33 34 35 37 39 41 43 46 47 49 49 50 49 50 52 53 53 53 53 51 49 48 47 48 50 51 52 53 52 51 51 51 53 52 50 47 44 41 39 37 36 35 34 32 30 28 25 23 22 21 20 18 17 16 16 17 17 16 16 16 16 18 20 22 25 26 26 29 34 37 39
46 45 44 43 43 43 44 45 45 45 45 43 40 36 33 32 33 34 37 39 41 44 45 46 47 48 48 49 51 52 53 53 52 51 49 47 48 50 51 52 53 53 52 51 50 51 53 51 48 45 42 40 38 37 37 36 34 32 30 28 25 23 22 21 20 18 17 17 17 17 15 14 14 14 15 16 18 21 24 26 26 28 33 36 39
47 48 47 45 44 43 44 45 45 45 45 44 42 38 34 32 32 32 35 37 39 42 43 44 46 47 48 49 50 50 51 52 51 50 48 47 48 51 51 51 52 52 51 50 50 51 51 49 46 44 42 40 39 38 38 37 35 33 30 28 26 24 22 21 20 18 16 17 17 15 13 14 14 14 14 15 17 19 22 25 26 28 31 34 37
48 48 48 48 46 44 43 44 45 45 44 44 42 40 36 33 31 32 33 35 37 39 41 43 44 45 46 47 48 49 50 51 50 49 47 46 49 51 51 50 50 51 52 51 50 50 49 47 45 43 42 40 39 39 39 37 35 32 30 29 28 25 23 21 19 17 17 17 16 14 13 14 14 14 14 16 17 18 20 22 24 27 30 32 34
47 48 48 49 48 46 44 44 44 45 45 43 42 41 38 34 31 31 32 34 35 37 39 41 43 44 45 46 47 48 49 49 48 47 46 46 49 51 51 50 51 51 52 51 50 50 48 46 46 44 42 40 40 40 39 37 34 32 31 30 28 25 22 20 18 18 18 17 15 14 14 15 14 14 15 16 17 18 19 21 23 25 28 31 32
48 48 49 49 49 48 47 45 45 45 45 45 42 40 39 36 32 30 31 32 34 36 38 40 41 43 44 45 46 47 48 48 47 46 44 45 48 51 51 50 50 50 50 49 49 49 49 49 47 44 41 41 42 40 38 36 34 33 32 30 27 24 22 20 19 19 18 15 15 16 15 14 14 15 16 17 17 18 19 20 22 24 26 29 31
50 50 50 51 50 48 48 47 47 46 46 46 45 42 39 37 35 31 29 31 33 35 37 38 40 41 43 44 45 45 46 46 45 44 43 43 47 50 50 49 48 47 47 47 48 49 50 49 47 43 42 43 42 40 38 36 34 34 32 29 25 23 22 20 19 18 17 16 16 16 14 14 15 15 17 18 18 18 20 21 22 24 25 27 29
53 52 52 52 52 50 48 47 47 47 46 46 46 44 40 38 36 33 30 29 31 33 36 37 39 41 42 43 44 44 44 44 43 43 42 42 45 48 48 47 47 46 45 47 48 48 48 47 45 43 43 44 42 40 38 35 34 34 31 26 24 24 22 19 18 17 16 16 16 15 14 15 16 16 17 18 18 19 20 22 23 23 25 26 28
56 56 55 54 54 53 52 49 47 48 48 47 46 45 42 38 37 35 32 29 29 32 35 37 38 40 42 42 43 43 43 43 42 42 41 41 42 45 46 45 44 43 43 45 46 45 45 45 43 42 44 44 42 39 37 35 34 32 28 25 25 24 20 17 17 16 16 16 15 14 14 15 16 17 18 19 19 20 21 22 23 23 25 27 29
59 59 59 57 56 55 55 53 49 47 47 48 47 46 43 40 37 36 34 31 30 30 33 36 38 40 41 42 42 42 41 42 42 41 41 40 39 40 43 43 41 41 42 43 44 43 43 42 41 42 44 42 38 36 35 34 32 29 28 27 25 21 18 17 17 17 17 16 16 15 14 15 16 17 18 20 20 21 22 23 24 24 25 27 30
60 61 62 61 59 57 57 56 53 49 47 48 48 46 44 42 39 37 36 34 32 31 32 35 37 39 41 41 42 41 41 42 42 40 40 40 38 38 40 40 39 39 40 40 41 42 42 42 42 43 42 38 35 36 36 33 31 31 30 28 23 19 18 18 18 18 17 16 16 15 14 15 16 17 19 21 21 21 23 24 25 25 25 28 32
61 63 63 63 62 60 58 58 57 53 49 48 48 47 46 43 41 39 38 36 35 33 33 34 36 39 40 40 41 41 40 41 41 39 39 39 39 39 39 38 37 37 38 39 41 42 42 41 41 40 38 36 37 38 37 35 34 32 28 23 20 19 19 19 18 18 17 16 16 15 15 16 17 17 19 21 22 21 22 25 26 27 27 29 33
61 63 64 64 63 63 60 58 58 56 52 48 47 47 46 44 43 42 40 37 36 35 34 35 36 37 38 38 39 40 40 41 41 39 38 38 39 42 42 40 38 39 39 40 41 41 40 38 36 35 37 39 39 38 36 34 33 29 24 22 22 21 20 20 19 18 17 17 16 15 15 16 17 18 20 21 21 21 22 24 25 27 28 29 33
62 63 65 65 64 63 61 58 55 54 51 48 46 46 46 44 43 43 41 39 36 34 34 35 35 35 35 36 38 39 39 39 38 37 37 37 39 44 46 43 41 41 41 40 41 41 40 38 37 39 41 40 38 36 35 34 30 27 25 24 23 22 21 20 19 18 18 17 16 16 16 17 18 19 21 22 22 21 22 23 24 26 28 30 33
63 64 64 64 63 62 60 57 54 51 49 47 46 46 46 44 42 42 41 39 37 35 34 35 35 34 35 36 36 37 36 34 33 33 34 35 37 43 46 45 44 42 41 39 40 41 41 41 42 42 40 37 35 35 35 32 30 28 27 25 23 22 21 20 19 18 17 16 15 16 17 17 18 20 21 23 22 22 21 22 23 26 28 30 32
60 63 63 61 59 58 57 56 53 50 48 46 43 43 44 44 43 41 39 38 37 35 34 34 35 35 36 36 36 36 35 33 32 31 30 31 34 39 43 46 46 44 42 41 40 41 42 43 43 42 39 38 38 36 33 31 30 29 27 25 24 22 21 20 19 17 16 15 15 16 17 18 19 21 22 22 23 23 22 22 24 25 27 29 31
55 59 60 57 55 53 53 53 50 47 46 44 41 39 39 41 42 41 38 36 36 36 35 34 35 36 37 37 36 36 36 35 33 32 29 29 32 37 43 47 47 45 43 42 41 40 42 43 43 43 42 40 37 34 32 30 29 28 27 25 23 22 20 19 18 16 15 15 16 16 16 18 19 21 21 22 23 24 24 24 25 26 27 29 31
51 54 54 52 49 48 45 43 41 38 38 38 37 35 35 37 38 39 36 34 34 34 34 34 34 35 37 37 37 37 36 35 34 33 30 28 30 35 42 46 47 46 45 44 41 41 42 43 42 42 40 37 33 32 31 30 29 28 26 24 23 21 19 18 16 15 15 15 15 15 16 18 19 20 21 22 22 24 25 26 27 27 27 29 31
48 50 48 43 41 40 38 36 37 38 38 38 37 36 36 36 36 35 34 33 32 32 32 33 33 33 34 34 35 36 35 34 34 33 30 27 28 34 40 42 42 44 47 47 44 42 42 41 40 39 36 33 32 32 32 31 29 28 26 24 23 20 18 17 16 15 15 15 15 15 16 17 18 19 21 22 22 24 26 27 27 27 27 29 32
44 44 41 37 37 40 42 43 45 45 44 41 38 36 35 35 36 35 33 32 33 33 33 33 33 32 32 32 32 32 32 31 31 30 29 27 28 33 39 41 40 41 45 47 46 44 41 39 38 37 34 33 33 33 32 31 30 28 26 24 22 19 18 17 16 15 15 14 14 15 15 16 17 19 21 22 23 25 27 28 28 28 28 29 32
44 44 42 41 42 45 46 45 43 40 37 34 33 33 33 34 35 34 34 33 33 33 34 33 33 32 31 30 30 29 28 28 27 26 27 28 28 36 44 47 46 47 48 48 46 44 40 39 38 36 34 33 33 32 31 30 29 27 25 23 20 19 17 17 16 15 14 14 14 15 15 15 16 18 20 22 23 25 27 28 28 28 28 29 31
45 45 45 44 43 41 39 36 33 32 32 31 31 31 32 33 33 33 33 33 33 33 33 33 33 32 31 30 29 27 27 26 24 23 25 27 30 38 47 49 48 50 50 48 45 44 42 40 38 33 31 32 32 31 30 30 28 26 23 21 19 18 17 16 15 15 14 13 13 14 15 14 15 17 19 22 24 25 27 28 28 29 29 29 31
44 43 41 39 37 37 38 39 39 38 37 36 36 34 32 32 32 33 33 32 32 32 33 33 33 33 33 32 31 28 27 26 24 24 27 30 34 41 48 49 48 50 51 48 45 43 42 39 35 31 31 32 31 31 30 29 26 23 21 19 18 17 16 15 15 14 14 13 13 14 14 14 15 17 19 22 24 25 27 27 28 29 31 31 32
42 40 38 37 37 39 41 40 39 36 32 32 33 34 33 32 31 32 32 31 31 32 32 33 34 34 32 31 31 30 29 30 30 30 33 35 38 43 48 49 49 50 50 46 43 41 39 37 34 32 32 33 32 31 29 26 23 21 19 18 17 16 15 15 14 14 14 13 13 13 14 14 15 17 19 21 24 26 27 28 28 28 30 33 36
41 40 39 37 36 35 34 32 31 30 29 29 30 30 31 31 30 31 31 30 30 31 32 32 34 34 32 30 32 33 34 35 35 35 36 39 42 45 48 50 51 51 49 45 41 38 36 35 34 33 34 33 32 30 27 23 21 19 17 16 16 15 14 14 14 14 13 13 13 13 14 15 16 18 20 21 24 26 27 27 27 27 30 34 38
39 39 38 36 33 32 32 32 32 31 31 31 31 30 31 32 30 29 30 30 30 30 31 32 33 32 31 30 31 33 35 36 36 36 39 42 45 47 49 51 52 50 46 43 40 37 35 34 34 35 34 32 30 27 24 21 19 18 16 15 15 14 14 14 14 13 13 13 13 14 14 15 17 19 21 22 24 26 26 27 28 29 31 35 37
35 35 35 33 32 32 32 32 30 28 29 30 29 28 30 31 30 29 29 30 29 29 29 30 30 30 29 29 30 32 34 35 36 38 41 43 46 48 49 50 49 46 42 40 39 37 35 35 34 34 32 30 27 25 22 19 18 17 15 15 14 13 14 14 14 14 14 14 14 14 15 17 18 20 21 23 24 26 26 27 29 31 33 36 36
31 31 30 29 29 28 28 27 26 26 27 28 27 26 26 28 29 29 29 29 29 28 28 29 28 28 28 27 27 31 35 35 35 38 41 43 46 47 47 46 44 42 39 37 36 34 33 33 33 31 29 26 23 21 19 18 17 16 15 14 14 13 13 14 14 14 14 14 14 15 16 18 18 20 21 23 25 26 26 28 31 33 34 35 36
29 29 29 28 28 27 27 26 25 26 26 26 25 25 24 26 28 29 28 28 27 27 26 27 26 26 26 25 28 32 35 34 34 37 41 44 46 46 44 42 40 38 36 33 32 31 31 31 31 28 26 24 21 19 18 17 16 15 14 13 13 13 13 13 14 15 15 15 16 16 17 18 18 20 22 24 24 25 27 30 33 35 35 34 36
27 27 27 27 27 27 27 26 26 25 23 22 22 22 23 24 26 27 26 26 25 25 25 25 25 25 25 27 31 34 35 34 35 37 41 44 44 43 41 39 37 34 32 30 29 29 30 29 28 25 23 21 19 17 16 15 14 13 13 12 12 12 13 13 14 15 16 16 17 18 19 19 19 20 22 24 24 25 28 32 35 35 34 34 36
25 26 25 25 24 24 23 23 21 20 19 18 19 20 21 22 23 23 23 22 22 22 23 23 24 25 26 29 32 34 34 34 36 37 39 41 40 39 37 35 33 30 28 28 28 29 28 26 24 21 19 18 16 15 14 13 12 12 11 10 10 11 12 13 14 15 16 17 18 19 19 19 20 21 22 24 24 26 30 34 35 33 33 34 36
24 24 23 22 21 20 18 17 16 15 15 15 17 18 19 19 20 20 20 20 20 22 23 24 25 26 27 30 32 34 33 34 34 35 36 36 36 35 35 33 30 28 28 28 28 27 25 23 21 19 17 16 15 13 12 11 10 9 9 8 9 10 12 13 14 15 16 17 18 19 19 19 20 21 22 23 24 27 32 35 34 32 32 33 36
22 21 19 18 17 15 14 12 11 11 11 12 14 15 16 16 17 17 18 19 20 21 23 24 25 27 28 29 31 32 31 31 31 32 32 33 34 34 33 30 28 27 28 29 28 26 23 21 19 17 15 14 13 12 10 9 8 7 7 7 8 10 12 13 14 15 16 17 18 18 18 19 20 22 22 23 25 29 33 34 33 31 31 34 37
19 18 16 15 14 12 10 9 7 6 7 8 10 11 12 13 15 16 17 18 19 20 22 23 24 26 28 28 29 29 29 29 29 30 32 33 33 31 28 26 26 27 28 27 25 23 20 18 17 15 14 13 11 10 8 7 6 6 6 7 9 10 12 13 14 15 17 17 17 17 18 19 20 21 21 23 27 31 33 32 31 30 31 34 38
18 16 14 13 11 9 8 6 4 3 3 5 7 9 10 12 13 15 16 17 18 19 21 22 23 24 26 26 26 26 27 28 30 31 32 31 29 27 26 26 27 28 26 24 22 20 18 17 16 15 13 12 10 8 7 5 5 6 7 8 9 11 12 14 15 16 16 17 17 17 18 20 20 20 21 24 29 32 31 30 29 30 32 35 38
17 16 14 12 11 9 8 6 4 1 1 3 5 7 9 10 12 13 15 16 17 18 19 21 22 23 23 23 23 23 26 28 30 30 29 26 25 25 26 27 27 26 24 22 20 18 17 16 15 14 12 10 9 7 6 6 6 6 8 9 10 12 13 14 15 15 16 16 17 17 18 18 19 19 22 27 30 30 29 28 29 30 33 36 39
Wind_Direction
297 289 286 283 280 278 275 272 267 262 259 257 257 257 256 255 254 253 252 251 248 247 246 245 245 244 242 239 236 235 235 236 236 236 235 234 234 233 232 232 233 234 235 236 237 239 241 244 246 249 251 254 257 260 262 266 269 270 271 270 267 265 264 265 269 272 276 283 288 291 296 302 309 313 313 314 316 318 319 319 319 320 320 320 319
308 295 288 284 281 278 276 274 271 268 264 261 260 259 259 257 256 255 255 253 252 250 249 248 248 247 245 242 239 236 234 234 234 235 235 235 235 234 233 232 233 233 234 235 236 238 240 242 244 247 249 251 254 256 260 263 265 266 266 265 263 261 262 264 270 274 276 283 290 296 299 303 308 311 312 313 314 315 316 316 317 318 318 317 316
320 306 296 291 286 281 277 275 273 272 270 269 267 265 264 261 259 257 256 255 254 253 252 250 249 249 248 246 243 238 235 233 233 233 234 235 235 235 234 234 233 234 234 235 236 237 239 240 242 245 247 249 251 254 257 259 261 262 262 260 258 258 261 265 271 278 282 286 292 298 302 305 310 313 314 314 314 316 317 317 318 319 319 317 316
324 314 307 302 296 289 284 279 276 274 274 275 275 274 270 265 261 259 257 256 255 254 253 251 250 249 249 248 246 242 238 234 232 232 232 234 235 235 235 235 235 235 235 236 236 238 238 239 240 243 244 246 248 250 253 256 257 258 258 257 256 256 261 266 272 278 283 287 292 297 303 307 311 314 317 317 319 321 323 326 327 326 325 323 322
328 319 312 306 300 296 291 286 281 278 277 278 279 279 275 269 264 260 257 256 255 254 253 252 250 249 248 248 247 245 241 236 233 232 231 232 233 234 235 235 236 236 236 236 237 237 238 238 239 241 242 243 244 246 249 252 253 254 255 254 253 255 259 264 271 276 281 287 293 297 302 307 311 315 319 322 323 326 328 330 330 329 328 327 327
338 327 318 309 301 297 294 290 286 283 281 281 281 280 277 271 266 261 258 256 255 254 253 252 251 250 249 248 248 247 244 240 236 233 232 231 232 233 234 235 235 236 236 236 236 237 237 237 237 238 240 241 242 244 246 248 249 251 252 252 251 252 256 261 268 274 279 286 292 296 301 306 312 317 321 325 327 330 330 328 327 328 328 327 328
349 339 328 318 308 303 301 297 292 288 285 283 282 279 276 273 268 264 261 258 256 255 254 252 251 251 249 248 247 247 245 243 239 235 232 231 232 232 233 233 234 234 235 235 236 236 236 235 235 235 237 239 240 242 243 245 247 248 249 249 248 250 254 259 264 270 277 284 290 295 302 310 315 318 323 327 328 330 330 327 326 327 327 327 328
356 351 342 332 322 316 311 304 298 293 288 285 282 278 275 273 270 266 261 258 256 256 255 254 252 250 249 248 247 246 245 244 241 237 233 231 231 231 232 232 232 233 233 234 234 234 235 234 233 233 235 237 239 240 241 242 244 245 246 246 247 248 251 256 261 267 274 281 287 295 305 313 317 319 323 326 327 328 329 326 324 325 326 327 328
354 354 352 346 337 327 317 309 304 298 292 286 282 280 277 274 271 266 261 258 257 256 256 254 252 250 249 247 246 245 244 244 242 239 235 231 230 229 230 231 231 232 232 232 232 233 233 232 231 232 233 235 236 237 238 239 241 243 244 245 245 247 249 253 259 265 272 277 285 295 307 314 317 319 320 322 323 325 325 324 322 323 325 325 326
348 349 351 351 347 339 328 317 310 302 295 289 285 282 279 274 270 266 263 259 257 256 254 253 252 251 249 247 245 244 244 244 243 240 237 234 232 230 230 230 230 231 232 232 231 231 231 230 230 230 231 233 233 234 235 237 239 241 242 243 244 246 249 253 258 264 270 276 285 298 309 313 316 317 317 319 320 321 322 323 323 324 325 324 325
344 344 344 346 348 346 340 330 318 308 301 294 289 284 280 274 270 266 263 260 258 256 254 253 252 251 249 247 246 245 245 245 243 241 239 236 234 232 232 231 231 231 231 231 231 231 230 229 228 229 230 231 231 232 234 236 238 239 240 240 243 245 248 254 259 265 269 277 288 301 309 310 311 312 313 315 317 319 321 323 323 325 326 325 324
342 341 340 341 342 345 346 341 331 321 312 303 294 287 281 274 269 265 263 261 259 257 255 253 252 250 248 247 246 246 246 245 244 243 240 237 234 233 233 233 233 232 232 232 232 231 230 228 228 228 229 230 230 231 233 234 236 237 238 239 241 244 249 255 259 264 271 281 292 302 306 306 307 309 311 313 315 318 320 321 323 324 323 322 321
341 339 338 338 339 340 343 344 341 336 326 314 302 292 282 275 270 267 265 263 260 258 256 253 250 248 247 247 247 246 246 246 245 243 241 238 236 234 234 234 234 234 233 233 232 231 230 228 228 229 229 229 230 230 232 234 234 233 234 237 240 244 249 254 258 266 275 285 292 298 302 302 303 306 309 312 315 318 319 319 321 321 319 319 320
339 338 337 336 337 337 337 339 342 342 337 327 312 299 288 280 275 272 268 264 260 258 256 253 250 249 248 248 247 247 247 246 245 244 241 239 237 235 235 235 235 235 235 235 234 232 231 229 230 230 230 230 230 230 231 232 232 231 232 235 239 243 249 255 261 270 278 284 289 294 296 295 297 300 305 311 315 316 317 317 318 318 316 316 317
336 335 334 334 334 334 335 335 336 339 341 337 326 312 299 289 282 276 271 267 263 260 257 254 252 250 249 249 248 248 248 247 246 243 241 239 237 236 235 235 236 236 235 235 234 233 232 231 231 231 230 230 230 230 231 232 231 231 233 236 240 244 249 256 263 269 273 278 283 287 286 286 292 298 306 311 312 312 313 312 314 315 312 312 313
333 332 331 331 332 332 332 332 331 333 336 338 335 326 312 299 290 283 276 271 266 261 258 255 253 252 250 249 249 249 249 247 244 243 240 238 237 236 235 235 235 235 235 234 232 231 230 230 230 230 229 230 230 230 231 231 230 231 233 236 239 242 247 253 258 261 264 269 275 278 281 287 293 298 302 305 305 307 307 308 311 312 310 310 313
331 330 329 328 328 329 329 329 328 328 330 333 336 333 323 310 298 288 280 274 269 264 260 257 255 253 251 250 249 248 248 246 244 242 240 237 236 235 234 234 234 234 234 233 231 229 229 229 229 229 228 228 229 229 229 229 229 230 232 235 238 241 245 249 253 256 260 266 270 274 279 284 287 289 293 296 299 301 303 306 311 311 310 312 315
329 328 327 326 325 325 326 326 325 324 323 325 330 332 329 320 307 294 283 277 273 268 264 259 256 253 252 251 250 248 248 247 244 242 240 237 236 236 235 233 233 233 233 231 230 228 227 227 227 228 227 227 227 227 227 228 228 230 232 235 238 241 243 246 250 254 258 261 264 266 271 275 277 283 287 289 294 298 302 307 311 310 310 312 314
327 326 325 324 322 321 321 322 321 320 319 319 323 327 329 326 316 303 290 282 276 270 265 260 257 254 252 251 250 248 247 246 244 242 239 236 235 236 235 233 233 232 231 230 229 227 225 225 226 226 225 225 226 226 227 227 228 231 233 235 238 241 244 246 249 252 254 256 259 261 265 268 272 278 282 286 293 298 301 305 307 308 310 310 311
326 325 323 321 320 319 318 317 317 317 316 316 317 321 324 326 322 311 298 288 280 273 268 263 259 257 254 252 250 247 245 244 242 240 237 234 234 236 235 233 232 231 230 229 227 225 223 223 224 224 223 223 224 225 227 228 229 231 233 235 239 242 243 244 246 250 253 254 257 260 261 265 271 277 281 287 292 295 299 303 305 306 307 306 308
324 323 321 320 320 318 316 314 313 314 314 314 313 314 318 321 320 315 306 294 283 275 270 265 260 258 255 252 249 246 245 243 241 239 236 233 234 236 235 233 233 233 231 230 227 225 223 223 223 224 223 223 224 224 226 229 231 231 232 235 238 239 239 241 245 249 252 253 254 258 262 269 275 280 283 286 291 296 300 302 302 303 303 304 306
322 321 320 319 319 317 315 313 311 309 310 311 310 309 311 313 315 314 308 298 287 277 271 266 260 257 254 251 248 246 244 243 241 238 234 231 233 236 236 235 235 235 233 231 228 226 225 224 224 225 225 224 223 223 224 227 229 231 231 232 233 233 235 239 244 246 248 249 252 257 263 269 274 277 282 286 292 298 300 299 300 301 302 303 304
318 318 317 317 317 316 314 312 309 307 307 307 307 306 305 306 308 308 306 300 291 281 272 266 261 257 253 250 248 246 245 243 241 237 233 229 231 236 237 236 236 236 235 233 230 228 227 225 224 225 226 224 223 222 222 222 225 229 231 228 227 232 237 241 242 242 244 248 252 258 263 268 273 277 282 287 293 297 297 298 299 301 301 302 301
315 315 315 314 315 315 314 311 308 305 303 303 303 302 301 300 300 301 301 298 291 283 275 267 261 257 254 252 250 248 246 244 241 237 233 229 229 234 238 237 236 235 234 233 232 231 228 224 224 225 226 224 222 220 219 218 220 224 225 223 225 233 239 241 241 241 244 248 254 259 262 268 275 279 285 291 294 296 297 298 299 301 301 301 301
313 312 312 312 312 312 311 310 307 303 300 300 299 298 297 295 293 294 295 293 288 283 276 270 264 259 257 254 252 250 248 245 242 238 234 229 225 229 236 237 234 233 232 231 231 230 226 224 225 225 223 220 217 214 214 214 214 215 218 222 228 233 235 236 238 241 245 249 253 258 263 269 276 282 288 292 294 296 300 300 299 301 302 301 300
309 309 309 309 309 308 308 308 307 303 298 295 294 294 293 291 288 287 287 287 285 282 276 271 266 261 258 256 254 253 249 246 243 239 234 229 222 223 232 235 232 230 230 229 229 227 224 224 225 222 217 212 209 209 209 208 208 213 219 226 230 230 229 233 237 241 246 250 253 257 264 270 277 284 289 292 295 299 302 302 301 304 306 305 303
306 306 306 306 305 305 304 304 304 302 297 292 291 290 289 287 284 282 281 280 280 279 275 271 266 263 261 259 257 254 250 247 244 238 233 228 219 216 225 230 227 226 226 224 224 223 220 220 221 216 208 203 204 208 208 206 209 216 222 224 224 224 227 232 236 239 244 248 252 259 267 273 279 285 288 291 296 300 302 303 305 308 311 309 307
302 303 303 303 302 301 301 300 299 299 296 291 288 286 285 284 280 278 278 277 276 275 274 272 269 267 265 262 259 256 251 248 246 242 238 232 219 212 216 221 220 219 220 220 219 219 217 215 211 204 200 202 205 208 209 210 214 219 219 217 219 221 225 229 233 238 243 247 253 262 269 274 281 287 289 292 296 300 302 305 308 311 313 312 310
300 300 300 300 298 298 297 296 296 295 292 289 286 283 282 281 278 276 275 275 274 273 272 272 273 271 268 264 261 257 255 254 253 249 245 237 222 211 212 216 217 217 218 217 216 214 210 207 203 200 201 205 207 208 210 212 213 214 213 214 217 220 224 229 233 237 241 248 256 265 271 278 284 288 290 293 296 301 305 308 310 313 314 313 311
299 299 298 296 296 295 295 294 293 292 289 287 284 282 279 278 276 273 271 272 273 271 269 270 272 270 267 265 263 261 261 262 260 254 246 238 224 213 211 215 218 217 215 215 215 213 208 204 203 204 206 208 210 211 211 211 210 210 211 213 215 219 223 228 232 237 243 252 261 268 275 282 286 289 292 295 299 304 307 310 314 315 314 313 312
297 296 296 294 294 293 292 291 291 289 285 284 283 281 280 277 275 273 270 270 270 269 267 267 267 266 264 263 262 262 261 258 255 252 246 238 226 213 210 214 218 217 215 214 214 213 211 208 207 208 210 212 214 213 210 208 208 209 210 212 214 218 222 226 231 238 246 255 263 270 278 284 287 290 293 298 302 306 310 314 317 315 313 313 315
295 294 294 293 292 290 289 289 289 288 285 284 283 282 281 279 276 274 271 268 268 269 268 265 263 261 261 260 259 258 257 254 252 248 243 236 226 213 208 213 217 217 216 217 216 214 213 211 210 210 211 212 211 208 205 205 206 207 209 212 214 217 220 225 233 241 249 256 264 271 277 282 286 290 295 300 305 309 313 317 318 316 314 316 318
294 293 292 291 290 289 286 285 285 284 282 283 284 282 280 277 275 276 275 272 269 268 267 265 261 257 258 258 258 257 255 254 252 248 241 234 225 212 207 212 216 216 215 215 215 213 212 212 212 213 213 211 207 204 203 204 205 206 208 210 212 216 220 227 235 243 249 257 264 269 275 281 287 292 297 302 306 311 316 318 318 318 318 320 321
294 292 292 290 288 285 279 274 274 274 275 277 278 277 275 273 273 275 276 273 268 264 261 260 257 253 251 252 254 255 255 252 249 246 241 233 222 210 204 206 211 215 217 217 214 212 212 212 213 214 213 209 204 203 203 202 202 204 205 207 210 215 221 228 235 242 249 256 264 270 276 283 289 294 299 304 309 314 317 318 319 320 323 325 325
293 291 289 285 279 275 273 273 274 276 277 279 278 275 271 270 271 271 271 270 267 262 258 256 254 251 247 245 245 248 250 250 247 243 238 231 217 203 200 200 200 202 209 213 214 213 214 215 215 213 209 205 203 202 202 201 201 202 203 205 209 214 220 228 234 241 248 255 264 271 277 284 290 295 302 307 313 316 317 318 320 323 326 328 328
292 289 286 282 278 276 278 279 280 281 282 283 281 277 272 269 268 269 269 266 264 261 258 255 253 250 246 241 237 237 238 240 242 240 236 229 212 197 197 200 197 196 200 207 211 213 216 218 217 213 207 203 201 200 199 199 199 201 202 204 209 214 220 227 233 240 247 255 262 270 277 284 291 298 304 309 312 316 317 318 321 325 328 329 326
291 290 288 287 286 285 283 279 275 272 271 269 270 273 274 271 268 267 266 263 260 257 254 251 248 244 238 232 228 226 225 228 232 233 229 222 208 198 199 200 198 198 201 205 208 211 213 215 215 211 206 202 199 197 198 198 199 200 202 204 209 215 221 227 233 240 247 254 261 269 277 286 295 301 306 309 313 316 318 320 323 326 328 327 324
292 290 287 285 283 281 277 274 271 271 269 265 262 264 268 269 268 266 264 261 258 255 251 246 242 239 235 230 224 219 215 214 216 216 213 208 202 200 201 201 200 201 204 206 208 210 212 212 211 208 204 201 198 196 198 199 198 200 202 206 211 216 220 227 235 241 248 254 263 273 282 292 299 303 306 310 314 318 320 324 327 327 327 326 323
291 288 284 280 278 277 277 277 277 277 275 271 266 264 263 263 264 264 261 258 255 252 247 242 238 237 235 230 222 213 206 203 203 204 204 202 201 200 201 202 202 204 206 206 207 209 211 210 207 203 200 198 197 196 198 198 198 200 204 208 213 218 223 230 238 245 253 261 270 279 288 295 300 304 308 312 316 320 324 327 328 326 326 325 324
290 288 286 284 282 280 278 275 272 270 270 269 266 263 261 260 260 260 259 256 253 249 244 240 237 236 233 228 220 212 206 204 204 203 201 200 200 201 203 203 204 205 206 207 209 210 209 206 203 199 197 195 195 195 196 195 197 202 207 210 215 222 228 234 243 251 259 268 276 284 292 298 303 307 311 314 318 322 325 327 327 326 326 325 324
292 290 288 285 282 279 275 272 270 268 267 265 263 260 258 257 258 257 256 253 250 247 243 239 237 235 231 227 222 216 212 209 206 203 201 199 199 201 204 205 205 206 208 211 212 211 207 203 200 196 194 193 193 192 193 195 198 203 208 211 216 224 232 239 248 256 263 273 282 288 296 303 306 310 314 317 320 323 325 326 328 328 327 325 325
295 292 291 289 287 284 281 279 277 273 268 267 266 261 255 253 253 254 253 250 247 244 239 236 233 230 227 223 218 215 213 210 205 201 201 201 200 202 204 206 206 207 211 213 213 210 204 199 195 193 192 191 191 191 193 196 200 204 209 214 219 228 236 244 253 261 268 278 287 293 300 305 308 311 315 318 320 323 325 327 329 329 326 325 327
300 297 296 294 292 289 287 284 280 273 267 268 269 265 256 250 249 251 251 248 245 240 235 230 226 223 220 216 210 207 208 207 204 202 202 201 201 203 204 204 204 207 212 212 209 205 200 193 190 188 188 189 189 191 194 199 203 207 212 217 223 232 241 249 260 268 274 283 291 297 301 306 309 311 314 318 321 324 327 329 330 328 325 326 328
304 302 300 298 296 293 290 285 279 272 267 265 265 264 258 250 246 247 246 243 240 236 230 226 222 218 214 206 200 200 203 204 205 204 203 202 202 202 202 202 204 207 208 205 199 195 191 188 186 185 184 185 188 192 197 202 205 210 215 221 229 239 249 256 265 273 280 288 294 298 303 307 310 311 314 319 323 326 328 330 329 327 325 327 330
310 307 306 303 299 295 291 286 282 279 275 268 262 259 256 249 244 243 241 237 233 229 225 221 217 213 206 198 195 198 202 204 204 204 204 203 202 202 202 203 205 204 200 194 190 186 184 183 183 182 183 186 190 195 199 204 209 214 220 228 237 247 256 265 272 280 286 291 296 300 304 307 310 312 315 320 324 327 328 329 327 324 325 329 330
318 315 313 309 305 300 296 292 288 285 280 271 261 254 250 245 241 238 235 232 228 223 218 213 209 206 201 196 195 199 202 202 202 203 203 202 201 200 199 198 195 191 188 187 185 182 179 178 179 180 183 188 193 197 201 207 212 218 226 235 245 255 266 273 279 285 291 294 298 302 304 306 308 310 314 320 326 328 327 325 322 321 326 330 330
325 321 317 314 312 309 306 301 296 289 278 266 254 247 242 237 233 229 226 222 217 212 208 205 202 200 198 196 197 199 200 201 202 203 201 198 195 192 190 187 184 183 184 183 180 177 176 175 177 180 185 190 195 199 203 209 215 224 234 244 255 266 275 280 285 289 293 295 299 302 304 304 305 308 315 324 328 326 322 319 318 322 328 330 330
332 329 326 323 321 319 316 310 300 286 268 252 240 234 230 225 220 214 211 208 205 203 201 199 197 195 195 195 196 197 198 200 201 199 194 189 185 184 183 184 185 184 182 178 175 174 175 175 178 182 187 191 195 199 204 211 220 232 246 260 271 277 282 287 290 292 294 296 300 303 303 301 302 310 321 328 325 319 317 316 318 323 329 329 328
341 339 338 337 334 330 326 318 302 277 252 237 226 219 214 211 207 203 201 200 198 197 197 196 195 194 194 194 195 197 199 199 196 189 182 178 177 179 181 184 185 182 177 174 173 173 174 175 179 183 188 192 197 201 208 218 233 250 265 277 284 286 289 293 294 295 296 299 302 302 299 298 305 317 325 322 315 313 314 315 318 325 329 328 327
352 350 350 349 348 345 340 331 315 281 236 219 209 200 196 195 194 193 194 194 192 192 193 194 193 193 193 194 195 195 195 191 185 179 175 175 177 180 182 182 179 176 173 171 172 172 174 178 183 186 189 194 200 206 215 231 249 266 279 286 288 292 295 296 297 298 300 301 300 299 298 303 314 322 320 312 310 312 314 315 319 326 328 326 326
5 4 4 5 6 6 4 1 1 8 187 190 187 184 184 182 182 183 186 187 187 187 189 190 190 190 190 190 189 186 182 178 175 174 175 178 181 182 181 177 174 171 170 170 171 174 178 182 185 188 193 199 206 214 229 245 259 273 282 287 291 295 298 298 300 302 301 299 299 299 300 307 316 318 311 307 310 313 313 314 321 327 327 325 326